Location: Winnipauk Village
(41.1295°N, 73.4171°W)
Time: 14:57:07
(UTC+00:00)

X-37B - Pass Details

Date: 01 August 2021
Orbit: 381 x 393 km, 45.0° (Epoch: 29 August)

Event Time Altitude Azimuth Distance (km) Brightness Sun altitude
Exits shadow 08:08:32 26° 162° (SSE) 788 1.9 -16.6°
Maximum altitude 08:08:58 27° 147° (SSE) 767 1.9 -16.5°
Drops below altitude 10° 08:11:41 10° 87° (E) 1,396 4.1 -16.1°
Sets 08:13:56 0° 74° (ENE) 2,252 5.6 -15.8°
